WetterOnline ( http://www.wetteronline.de )

Wetter aktuell Lahnau

Aktuelles Wetter: Gießen (195m)

6-stündlich | Neueste Meldungen
Ortszeit Temperatur Wetter
Mi, 20.02. 19:00 7.1° C bewölkt
Mi, 20.02. 13:00 7.1° C bedeckt
Mi, 20.02. 7:00 -1.4° C bedeckt
Mi, 20.02. 1:00 0.1° C leicht bewölkt
Di, 19.02. 19:00 5.2° C bewölkt
Di, 19.02. 13:00 7.6° C wolkig
Di, 19.02. 7:00 -0.6° C bewölkt
Di, 19.02. 1:00 0.7° C leicht bewölkt
Ortszeit Temperatur Wetter
Do, 21.02. 0:30 3.6° C bedeckt
Do, 21.02. 0:20 3.6° C bedeckt
Do, 21.02. 0:10 3.8° C bedeckt
Do, 21.02. 0:00 3.9° C bedeckt
Mi, 20.02. 23:50 3.9° C bedeckt
Mi, 20.02. 23:40 4.0° C bedeckt
Mi, 20.02. 23:30 3.9° C bedeckt
Mi, 20.02. 23:00 3.0° C bedeckt
Mi, 20.02. 22:30 4.0° C bedeckt
Mi, 20.02. 22:00 4.4° C bedeckt
Mi, 20.02. 21:30 4.8° C wolkig
Ortszeit Relative Feuchte Sichtweite
Mi, 20.02. 19:00 71% 35 km
Mi, 20.02. 13:00 75% 20 km
Mi, 20.02. 7:00 99% 14 km
Mi, 20.02. 1:00 92% 23 km
Di, 19.02. 19:00 74% 40 km
Di, 19.02. 13:00 81% 23 km
Di, 19.02. 7:00 97% 16 km
Di, 19.02. 1:00 94% 15 km
Ortszeit Relative Feuchte Sichtweite
Do, 21.02. 0:30 87% 22 km
Do, 21.02. 0:20 87% -
Do, 21.02. 0:10 87% -
Do, 21.02. 0:00 87% 23 km
Mi, 20.02. 23:50 87% -
Mi, 20.02. 23:40 87% -
Mi, 20.02. 23:30 89% 24 km
Mi, 20.02. 23:00 88% 22 km
Mi, 20.02. 22:30 86% 26 km
Mi, 20.02. 22:00 86% 26 km
Mi, 20.02. 21:30 83% 26 km
Ortszeit Niederschlagsmenge Niederschlagsart
Mi, 20.02. 19:00 0.0 l/m2 in 12 Std. -
Mi, 20.02. 13:00 0.0 l/m2 in 6 Std. -
Mi, 20.02. 7:00 0.0 l/m2 in 12 Std. -
Mi, 20.02. 1:00 0.0 l/m2 in 6 Std. -
Di, 19.02. 19:00 0.7 l/m2 in 12 Std. -
Di, 19.02. 13:00 0.7 l/m2 in 6 Std. Regen
Di, 19.02. 7:00 0.0 l/m2 in 12 Std. -
Di, 19.02. 1:00 0.0 l/m2 in 6 Std. -
Ortszeit Niederschlagsmenge Niederschlagsart
Do, 21.02. 0:30 0.0 l/m2 in 1 Std. -
Do, 21.02. 0:20 keine Meldung -
Do, 21.02. 0:10 keine Meldung -
Do, 21.02. 0:00 0.0 l/m2 in 1 Std. -
Mi, 20.02. 23:50 keine Meldung -
Mi, 20.02. 23:40 keine Meldung -
Mi, 20.02. 23:30 0.0 l/m2 in 1 Std. -
Mi, 20.02. 23:00 0.0 l/m2 in 1 Std. -
Mi, 20.02. 22:30 0.0 l/m2 in 1 Std. -
Mi, 20.02. 22:00 0.0 l/m2 in 1 Std. -
Mi, 20.02. 21:30 0.0 l/m2 in 1 Std. -
Ortszeit Stärke Spitze Richtung
km/h Bft. km/h Grad Sektor
Mi, 20.02. 19:00 4 1 32 220° SW
Mi, 20.02. 13:00 7 2 11 220° SW
Mi, 20.02. 7:00 0 0 7 - -
Mi, 20.02. 1:00 4 1 11 130° SO
Di, 19.02. 19:00 7 2 36 230° SW
Di, 19.02. 13:00 11 2 18 180° S
Di, 19.02. 7:00 4 1 7 250° W
Di, 19.02. 1:00 6 1 13 180° S
Ortszeit Stärke Spitze Richtung
km/h Bft. km/h Grad Sektor
Do, 21.02. 0:30 4 1 4 130° SO
Do, 21.02. 0:20 4 1 - 130° SO
Do, 21.02. 0:10 2 1 - 100° O
Do, 21.02. 0:00 0 0 4 - -
Mi, 20.02. 23:50 0 0 - 40° NO
Mi, 20.02. 23:40 2 1 - 290° W
Mi, 20.02. 23:30 0 0 4 - -
Mi, 20.02. 23:00 4 1 4 200° S
Mi, 20.02. 22:30 4 1 4 50° NO
Mi, 20.02. 22:00 2 1 6 340° N
Mi, 20.02. 21:30 4 1 7 230° SW
Ortszeit Untergrenze Bedeckung Gattung
total tief tief mittel hoch
Mi, 20.02. 19:00 2400 m 7/8 7/8 - - -
Mi, 20.02. 13:00 3600 m 8/8 8/8 - - -
Mi, 20.02. 7:00 3600 m 8/8 8/8 - - -
Mi, 20.02. 1:00 6300 m 4/8 2/8 - - -
Di, 19.02. 19:00 1440 m 7/8 7/8 - - -
Di, 19.02. 13:00 780 m 5/8 5/8 - - -
Di, 19.02. 7:00 750 m 8/8 7/8 - - -
Di, 19.02. 1:00 7800 m 5/8 0/8 - - -
Ortszeit Bedeckungsgrad in Achtel und Wolkenuntergrenze
Do, 21.02. 0:30 8(5100m)
Do, 21.02. 0:20 8(5100m)
Do, 21.02. 0:10 8(5100m)
Do, 21.02. 0:00 8(5100m)
Mi, 20.02. 23:50 8(5100m)
Mi, 20.02. 23:40 8(5100m)
Mi, 20.02. 23:30 8(4800m)
Mi, 20.02. 23:00 8(4500m) 8(5100m)
Mi, 20.02. 22:30 8(5100m)
Mi, 20.02. 22:00 8(5100m)
Mi, 20.02. 21:30 5(5100m) 7(10500m)
Ortszeit Luftdruck NN (hPa) Tendenz (hPa in 3 Std.)
Mi, 20.02. 19:00 1025 + 0,6
Mi, 20.02. 13:00 1025 + 0,1
Mi, 20.02. 7:00 1024 + 0,5
Mi, 20.02. 1:00 1024 + 0,7
Di, 19.02. 19:00 1021 + 0,9
Di, 19.02. 13:00 1020 + 0,2
Di, 19.02. 7:00 1019 + 0,4
Di, 19.02. 1:00 1019 + 0,1
Ortszeit Luftdruck NN (hPa) Tendenz (hPa in 3 Std.)
Do, 21.02. 0:30 1027 + 0,9
Do, 21.02. 0:20 1027 keine Meldung
Do, 21.02. 0:10 1026 keine Meldung
Do, 21.02. 0:00 1027 + 0,5
Mi, 20.02. 23:50 1027 keine Meldung
Mi, 20.02. 23:40 1027 keine Meldung
Mi, 20.02. 23:30 1027 + 0,6
Mi, 20.02. 23:00 1027 + 0,9
Mi, 20.02. 22:30 1026 + 0,9
Mi, 20.02. 22:00 1026 + 0,8
Mi, 20.02. 21:30 1026 + 0,8
Ortszeit Schneehöhe (cm)
Mi, 20.02. 19:00 0
Mi, 20.02. 13:00 0
Mi, 20.02. 7:00 0
Mi, 20.02. 1:00 0
Di, 19.02. 19:00 0
Di, 19.02. 13:00 0
Di, 19.02. 7:00 0
Di, 19.02. 1:00 0
Ortszeit Schneehöhe (cm)
Do, 21.02. 0:30 0
Do, 21.02. 0:20 0
Do, 21.02. 0:10 0
Do, 21.02. 0:00 0
Mi, 20.02. 23:50 0
Mi, 20.02. 23:40 0
Mi, 20.02. 23:30 0
Mi, 20.02. 23:00 0
Mi, 20.02. 22:30 0
Mi, 20.02. 22:00 0
Mi, 20.02. 21:30 0
Link zu dieser Seite / Seite empfehlen

Das Wetter in ...